| time (UTC) | temp C | wind direction | speed KPH | gust KPH | rain 1hr cm | rain 24hr cm | rain mn cm | humidity % | barometer mb |
| 20260507060952 | 8 | 121 | 0.0 | 0.0 | 0.00 | 0.00 | 0.00 | 74 | 1021.0 |
| 20260507060449 | 9 | 120 | 0.0 | 0.0 | 0.00 | 0.00 | 0.00 | 72 | 1021.0 |
| 20260507055945 | 10 | 115 | 0.0 | 0.0 | 0.00 | 0.00 | 0.00 | 71 | 1021.0 |
| 20260507055440 | 10 | 122 | 0.0 | 0.0 | 0.00 | 0.00 | 0.00 | 70 | 1021.2 |
| 20260507054937 | 10 | 104 | 0.0 | 0.0 | 0.00 | 0.00 | 0.00 | 70 | 1021.1 |
| 20260507054433 | 10 | 117 | 0.0 | 0.0 | 0.00 | 0.00 | 0.00 | 69 | 1021.0 |
| 20260507053931 | 10 | 117 | 0.0 | 0.0 | 0.00 | 0.00 | 0.00 | 69 | 1021.0 |
| 20260507053428 | 10 | 119 | 0.0 | 0.0 | 0.00 | 0.00 | 0.00 | 69 | 1021.0 |
| 20260507052927 | 10 | 109 | 0.0 | 0.0 | 0.00 | 0.00 | 0.00 | 69 | 1021.1 |
| 20260507052424 | 10 | 130 | 0.0 | 0.0 | 0.00 | 0.00 | 0.00 | 70 | 1021.0 |
| 20260507051921 | 10 | 142 | 0.0 | 0.0 | 0.00 | 0.00 | 0.00 | 69 | 1020.9 |
| 20260507051418 | 10 | 143 | 0.0 | 0.0 | 0.00 | 0.00 | 0.00 | 67 | 1020.5 |
| 20260507050915 | 10 | 143 | 0.0 | 0.0 | 0.00 | 0.00 | 0.00 | 66 | 1020.6 |
| 20260507050411 | 10 | 127 | 0.0 | 0.0 | 0.00 | 0.00 | 0.00 | 65 | 1020.8 |
| 20260507045908 | 11 | 136 | 0.0 | 0.0 | 0.00 | 0.00 | 0.00 | 64 | 1020.8 |
| 20260507045404 | 11 | 116 | 0.0 | 0.0 | 0.00 | 0.00 | 0.00 | 63 | 1020.8 |
| 20260507044857 | 11 | 117 | 0.0 | 0.0 | 0.00 | 0.00 | 0.00 | 62 | 1020.8 |
| 20260507044353 | 11 | 121 | 0.0 | 0.0 | 0.00 | 0.00 | 0.00 | 61 | 1020.8 |
| 20260507043849 | 11 | 118 | 0.0 | 0.0 | 0.00 | 0.00 | 0.00 | 60 | 1020.5 |
| 20260507043345 | 12 | 108 | 0.0 | 3.2 | 0.00 | 0.00 | 0.00 | 59 | 1020.5 |
| 20260507042842 | 12 | 38 | 4.8 | 4.8 | 0.00 | 0.00 | 0.00 | 59 | 1020.3 |
| 20260507042337 | 12 | 72 | 1.6 | 1.6 | 0.00 | 0.00 | 0.00 | 58 | 1020.2 |
| 20260507041829 | 12 | 89 | 3.2 | 9.7 | 0.00 | 0.00 | 0.00 | 58 | 1019.5 |
| 20260507041325 | 12 | 94 | 3.2 | 4.8 | 0.00 | 0.00 | 0.00 | 58 | 1019.6 |
| 20260507040823 | 12 | 118 | 0.0 | 3.2 | 0.00 | 0.00 | 0.00 | 58 | 1019.9 |
| 20260507040319 | 12 | 56 | 4.8 | 6.4 | 0.00 | 0.00 | 0.00 | 57 | 1019.5 |
| 20260507035815 | 12 | 51 | 3.2 | 6.4 | 0.00 | 0.00 | 0.00 | 58 | 1019.3 |
| 20260507035310 | 12 | 90 | 4.8 | 4.8 | 0.00 | 0.00 | 0.00 | 58 | 1019.5 |
| 20260507034809 | 12 | 83 | 1.6 | 3.2 | 0.00 | 0.00 | 0.00 | 58 | 1019.5 |
| 20260507034305 | 12 | 83 | 1.6 | 4.8 | 0.00 | 0.00 | 0.00 | 58 | 1019.8 |
| 20260507033803 | 12 | 49 | 1.6 | 3.2 | 0.00 | 0.00 | 0.00 | 58 | 1019.8 |
| 20260507033301 | 12 | 93 | 1.6 | 3.2 | 0.00 | 0.00 | 0.00 | 59 | 1019.8 |
| 20260507032757 | 12 | 96 | 0.0 | 1.6 | 0.00 | 0.00 | 0.00 | 60 | 1019.9 |
| 20260507032253 | 12 | 117 | 0.0 | 0.0 | 0.00 | 0.00 | 0.00 | 61 | 1019.7 |
| 20260507031750 | 12 | 93 | 0.0 | 1.6 | 0.00 | 0.00 | 0.00 | 60 | 1019.7 |
| 20260507031247 | 12 | 104 | 0.0 | 0.0 | 0.00 | 0.00 | 0.00 | 60 | 1019.8 |
| 20260507030744 | 12 | 71 | 0.0 | 1.6 | 0.00 | 0.00 | 0.00 | 60 | 1019.4 |
| 20260507030241 | 12 | 120 | 0.0 | 0.0 | 0.00 | 0.00 | 0.00 | 59 | 1019.4 |
| 20260507025738 | 12 | 127 | 0.0 | 0.0 | 0.00 | 0.00 | 0.00 | 59 | 1019.4 |
| 20260507025235 | 12 | 125 | 0.0 | 1.6 | 0.00 | 0.00 | 0.00 | 58 | 1019.1 |
| 20260507024734 | 12 | 134 | 0.0 | 0.0 | 0.00 | 0.00 | 0.00 | 58 | 1019.0 |
| 20260507024231 | 13 | 117 | 0.0 | 1.6 | 0.00 | 0.00 | 0.00 | 57 | 1019.1 |
| 20260507023726 | 13 | 117 | 0.0 | 0.0 | 0.00 | 0.00 | 0.00 | 56 | 1019.0 |
| 20260507023223 | 13 | 106 | 0.0 | 1.6 | 0.00 | 0.00 | 0.00 | 56 | 1019.0 |
| 20260507022720 | 13 | 100 | 0.0 | 3.2 | 0.00 | 0.00 | 0.00 | 55 | 1019.1 |
| 20260507022216 | 13 | 121 | 0.0 | 3.2 | 0.00 | 0.00 | 0.00 | 55 | 1018.9 |
| 20260507021713 | 13 | 91 | 0.0 | 1.6 | 0.00 | 0.00 | 0.00 | 54 | 1018.9 |
| 20260507021208 | 14 | 57 | 1.6 | 1.6 | 0.00 | 0.00 | 0.00 | 53 | 1018.8 |
| 20260507020707 | 14 | 106 | 0.0 | 4.8 | 0.00 | 0.00 | 0.00 | 52 | 1018.7 |
| 20260507020202 | 15 | 109 | 0.0 | 3.2 | 0.00 | 0.00 | 0.00 | 52 | 1018.5 |
| 20260507015701 | 15 | 63 | 0.0 | 4.8 | 0.00 | 0.00 | 0.00 | 51 | 1018.5 |
| 20260507015158 | 15 | 95 | 1.6 | 4.8 | 0.00 | 0.00 | 0.00 | 50 | 1018.4 |
| 20260507014654 | 15 | 75 | 4.8 | 12.9 | 0.00 | 0.00 | 0.00 | 50 | 1018.5 |
| 20260507014150 | 15 | 68 | 0.0 | 4.8 | 0.00 | 0.00 | 0.00 | 49 | 1018.2 |
| 20260507013647 | 15 | 60 | 1.6 | 6.4 | 0.00 | 0.00 | 0.00 | 49 | 1018.3 |
| 20260507013144 | 15 | 76 | 3.2 | 4.8 | 0.00 | 0.00 | 0.00 | 49 | 1018.2 |
| 20260507012642 | 16 | 80 | 4.8 | 6.4 | 0.00 | 0.00 | 0.00 | 48 | 1018.2 |
| 20260507012137 | 16 | 80 | 1.6 | 11.3 | 0.00 | 0.00 | 0.00 | 48 | 1018.4 |
| 20260507011636 | 16 | 122 | 4.8 | 6.4 | 0.00 | 0.00 | 0.00 | 47 | 1018.5 |
| 20260507011131 | 16 | 2 | 3.2 | 11.3 | 0.00 | 0.00 | 0.00 | 47 | 1018.2 |
| 20260507010626 | 16 | 48 | 8.0 | 14.5 | 0.00 | 0.00 | 0.00 | 47 | 1018.1 |
| 20260507010122 | 16 | 69 | 1.6 | 4.8 | 0.00 | 0.00 | 0.00 | 47 | 1018.1 |
| 20260507005620 | 16 | 88 | 1.6 | 9.7 | 0.00 | 0.00 | 0.00 | 47 | 1018.0 |
| 20260507005116 | 16 | 79 | 6.4 | 9.7 | 0.00 | 0.00 | 0.00 | 46 | 1018.0 |
| 20260507004613 | 16 | 82 | 1.6 | 4.8 | 0.00 | 0.00 | 0.00 | 47 | 1018.0 |
| 20260507004110 | 16 | 43 | 8.0 | 12.9 | 0.00 | 0.00 | 0.00 | 46 | 1018.0 |
| 20260507003606 | 17 | 52 | 3.2 | 9.7 | 0.00 | 0.00 | 0.00 | 46 | 1017.9 |
| 20260507003101 | 17 | 26 | 1.6 | 3.2 | 0.00 | 0.00 | 0.00 | 46 | 1017.8 |
| 20260507002558 | 17 | 118 | 0.0 | 4.8 | 0.00 | 0.00 | 0.00 | 46 | 1017.7 |
| 20260507002054 | 17 | 38 | 1.6 | 9.7 | 0.00 | 0.00 | 0.00 | 46 | 1017.8 |
| 20260507001551 | 17 | 42 | 1.6 | 11.3 | 0.00 | 0.00 | 0.00 | 46 | 1017.9 |
| 20260507001048 | 17 | 90 | 0.0 | 9.7 | 0.00 | 0.00 | 0.00 | 46 | 1017.7 |
| 20260507000544 | 17 | 45 | 3.2 | 9.7 | 0.00 | 0.00 | 0.00 | 45 | 1017.5 |
| 20260507000040 | 17 | 58 | 3.2 | 6.4 | 0.00 | 0.00 | 0.00 | 44 | 1017.7 |
| 20260506235538 | 17 | 112 | 1.6 | 11.3 | 0.00 | 0.00 | 0.00 | 45 | 1017.5 |
| 20260506235033 | 17 | 69 | 1.6 | 3.2 | 0.00 | 0.00 | 0.00 | 46 | 1017.4 |
| 20260506234531 | 17 | 36 | 4.8 | 11.3 | 0.00 | 0.00 | 0.00 | 45 | 1017.2 |
| 20260506234028 | 18 | 49 | 3.2 | 4.8 | 0.00 | 0.00 | 0.00 | 44 | 1017.5 |
| 20260506233524 | 18 | 29 | 3.2 | 4.8 | 0.00 | 0.00 | 0.00 | 44 | 1017.4 |
| 20260506233016 | 18 | 343 | 4.8 | 14.5 | 0.00 | 0.00 | 0.00 | 44 | 1017.2 |
| 20260506232512 | 18 | 320 | 3.2 | 6.4 | 0.00 | 0.00 | 0.00 | 44 | 1017.1 |
| 20260506232007 | 17 | 30 | 3.2 | 9.7 | 0.00 | 0.00 | 0.00 | 44 | 1017.3 |
| 20260506231505 | 18 | 75 | 3.2 | 9.7 | 0.00 | 0.00 | 0.00 | 44 | 1017.1 |
| 20260506231003 | 18 | 70 | 8.0 | 12.9 | 0.00 | 0.00 | 0.00 | 44 | 1017.0 |
| 20260506230458 | 17 | 322 | 1.6 | 6.4 | 0.00 | 0.00 | 0.00 | 44 | 1017.0 |
| 20260506225956 | 18 | 299 | 1.6 | 9.7 | 0.00 | 0.00 | 0.00 | 44 | 1017.0 |
| 20260506225453 | 18 | 44 | 3.2 | 12.9 | 0.00 | 0.00 | 0.00 | 43 | 1017.2 |
| 20260506224949 | 18 | 140 | 0.0 | 4.8 | 0.00 | 0.00 | 0.00 | 44 | 1016.9 |
| 20260506224446 | 17 | 292 | 1.6 | 11.3 | 0.00 | 0.00 | 0.00 | 44 | 1016.9 |
| 20260506223943 | 18 | 6 | 6.4 | 12.9 | 0.00 | 0.00 | 0.00 | 44 | 1016.8 |
| 20260506223439 | 18 | 94 | 3.2 | 11.3 | 0.00 | 0.00 | 0.00 | 43 | 1016.7 |
| 20260506222936 | 18 | 39 | 8.0 | 11.3 | 0.00 | 0.00 | 0.00 | 43 | 1016.6 |
| 20260506222432 | 18 | 49 | 6.4 | 11.3 | 0.00 | 0.00 | 0.00 | 44 | 1016.6 |
| 20260506221929 | 18 | 57 | 1.6 | 6.4 | 0.00 | 0.00 | 0.00 | 45 | 1016.7 |
| 20260506221426 | 18 | 70 | 9.7 | 14.5 | 0.00 | 0.00 | 0.00 | 44 | 1016.5 |
| 20260506220924 | 18 | 87 | 9.7 | 14.5 | 0.00 | 0.00 | 0.00 | 45 | 1016.5 |
| 20260506220419 | 18 | 73 | 9.7 | 14.5 | 0.00 | 0.00 | 0.00 | 43 | 1016.4 |
| 20260506215916 | 17 | 110 | 4.8 | 9.7 | 0.00 | 0.00 | 0.00 | 45 | 1016.6 |
| 20260506215412 | 18 | 52 | 9.7 | 12.9 | 0.00 | 0.00 | 0.00 | 44 | 1016.8 |
| 20260506214908 | 18 | 72 | 8.0 | 12.9 | 0.00 | 0.00 | 0.00 | 42 | 1016.7 |
| 20260506214405 | 19 | 98 | 6.4 | 11.3 | 0.00 | 0.00 | 0.00 | 43 | 1016.6 |
| 20260506213903 | 19 | 68 | 6.4 | 16.1 | 0.00 | 0.00 | 0.00 | 43 | 1016.6 |
| 20260506213401 | 18 | 27 | 4.8 | 16.1 | 0.00 | 0.00 | 0.00 | 43 | 1016.6 |
| 20260506212858 | 18 | 39 | 3.2 | 6.4 | 0.00 | 0.00 | 0.00 | 44 | 1016.7 |
| 20260506212353 | 18 | 51 | 8.0 | 17.7 | 0.00 | 0.00 | 0.00 | 44 | 1016.9 |
| 20260506211848 | 18 | 211 | 4.8 | 6.4 | 0.00 | 0.00 | 0.00 | 44 | 1016.8 |
| 20260506211345 | 17 | 73 | 4.8 | 14.5 | 0.00 | 0.00 | 0.00 | 47 | 1017.0 |
| 20260506210842 | 17 | 115 | 3.2 | 17.7 | 0.00 | 0.00 | 0.00 | 47 | 1016.9 |
| 20260506210339 | 18 | 62 | 3.2 | 9.7 | 0.00 | 0.00 | 0.00 | 47 | 1016.9 |
| 20260506205836 | 18 | 23 | 8.0 | 16.1 | 0.00 | 0.00 | 0.00 | 46 | 1017.0 |
| 20260506205332 | 17 | 87 | 4.8 | 12.9 | 0.00 | 0.00 | 0.00 | 48 | 1017.0 |
| 20260506204828 | 17 | 68 | 3.2 | 12.9 | 0.00 | 0.00 | 0.00 | 48 | 1017.3 |
| 20260506204326 | 18 | 219 | 4.8 | 11.3 | 0.00 | 0.00 | 0.00 | 46 | 1016.8 |
| 20260506203824 | 17 | 67 | 0.0 | 9.7 | 0.00 | 0.00 | 0.00 | 48 | 1017.1 |
| 20260506203321 | 17 | 95 | 3.2 | 16.1 | 0.00 | 0.00 | 0.00 | 49 | 1017.3 |
| 20260506202817 | 17 | 20 | 6.4 | 16.1 | 0.00 | 0.00 | 0.00 | 49 | 1017.4 |
| 20260506202315 | 17 | 44 | 1.6 | 12.9 | 0.00 | 0.00 | 0.00 | 49 | 1017.4 |
| 20260506201811 | 17 | 9 | 4.8 | 9.7 | 0.00 | 0.00 | 0.00 | 49 | 1017.7 |
| 20260506201309 | 17 | 207 | 1.6 | 9.7 | 0.00 | 0.00 | 0.00 | 50 | 1017.5 |
| 20260506200805 | 17 | 78 | 6.4 | 11.3 | 0.00 | 0.00 | 0.00 | 50 | 1017.5 |
| 20260506200301 | 16 | 61 | 1.6 | 11.3 | 0.00 | 0.00 | 0.00 | 51 | 1017.5 |
| 20260506195758 | 17 | 32 | 8.0 | 12.9 | 0.00 | 0.00 | 0.00 | 49 | 1017.7 |
| 20260506195255 | 17 | 84 | 9.7 | 14.5 | 0.00 | 0.00 | 0.00 | 50 | 1017.5 |
| 20260506194752 | 17 | 136 | 3.2 | 11.3 | 0.00 | 0.00 | 0.00 | 50 | 1017.8 |
| 20260506194248 | 17 | 45 | 6.4 | 9.7 | 0.00 | 0.00 | 0.00 | 50 | 1017.7 |
| 20260506193746 | 16 | 243 | 3.2 | 9.7 | 0.00 | 0.00 | 0.00 | 52 | 1017.9 |
| 20260506193242 | 16 | 127 | 8.0 | 14.5 | 0.00 | 0.00 | 0.00 | 52 | 1017.7 |
| 20260506192739 | 16 | 48 | 1.6 | 14.5 | 0.00 | 0.00 | 0.00 | 53 | 1017.9 |
| 20260506192236 | 15 | 38 | 6.4 | 9.7 | 0.00 | 0.00 | 0.00 | 53 | 1018.0 |
| 20260506191732 | 16 | 103 | 6.4 | 6.4 | 0.00 | 0.00 | 0.00 | 53 | 1017.9 |
| 20260506191229 | 16 | 44 | 3.2 | 9.7 | 0.00 | 0.00 | 0.00 | 52 | 1017.8 |
| 20260506190726 | 16 | 43 | 3.2 | 6.4 | 0.00 | 0.00 | 0.00 | 52 | 1018.0 |
| 20260506190222 | 16 | 332 | 4.8 | 9.7 | 0.00 | 0.00 | 0.00 | 53 | 1018.1 |
| 20260506185720 | 16 | 94 | 6.4 | 6.4 | 0.00 | 0.00 | 0.00 | 53 | 1018.3 |
| 20260506185216 | 15 | 93 | 3.2 | 14.5 | 0.00 | 0.00 | 0.00 | 53 | 1018.3 |
| 20260506184714 | 16 | 88 | 3.2 | 11.3 | 0.00 | 0.00 | 0.00 | 53 | 1018.1 |
| 20260506184211 | 16 | 58 | 4.8 | 11.3 | 0.00 | 0.00 | 0.00 | 53 | 1018.0 |
| 20260506183707 | 15 | 80 | 6.4 | 9.7 | 0.00 | 0.00 | 0.00 | 52 | 1018.3 |
| 20260506183203 | 15 | 85 | 6.4 | 11.3 | 0.00 | 0.00 | 0.00 | 53 | 1018.3 |
| 20260506182701 | 15 | 91 | 4.8 | 14.5 | 0.00 | 0.00 | 0.00 | 53 | 1018.2 |
| 20260506182157 | 16 | 69 | 9.7 | 12.9 | 0.00 | 0.00 | 0.00 | 53 | 1018.4 |
| 20260506181655 | 15 | 79 | 11.3 | 14.5 | 0.00 | 0.00 | 0.00 | 53 | 1018.4 |
| 20260506181152 | 16 | 90 | 6.4 | 17.7 | 0.00 | 0.00 | 0.00 | 52 | 1018.4 |
| 20260506180649 | 16 | 63 | 3.2 | 9.7 | 0.00 | 0.00 | 0.00 | 52 | 1018.6 |
| 20260506180145 | 16 | 47 | 6.4 | 9.7 | 0.00 | 0.00 | 0.00 | 53 | 1018.7 |
| 20260506175642 | 15 | 49 | 4.8 | 9.7 | 0.00 | 0.00 | 0.00 | 54 | 1018.5 |
| 20260506175139 | 15 | 87 | 12.9 | 16.1 | 0.00 | 0.00 | 0.00 | 52 | 1018.8 |
| 20260506174632 | 15 | 75 | 6.4 | 11.3 | 0.00 | 0.00 | 0.00 | 54 | 1018.7 |
| 20260506174128 | 16 | 41 | 8.0 | 9.7 | 0.00 | 0.00 | 0.00 | 52 | 1018.5 |
| 20260506173626 | 15 | 28 | 4.8 | 11.3 | 0.00 | 0.00 | 0.00 | 53 | 1018.9 |
| 20260506173122 | 16 | 57 | 8.0 | 11.3 | 0.00 | 0.00 | 0.00 | 53 | 1018.7 |
| 20260506172619 | 15 | 61 | 9.7 | 12.9 | 0.00 | 0.00 | 0.00 | 53 | 1018.7 |
| 20260506172115 | 15 | 82 | 6.4 | 14.5 | 0.00 | 0.00 | 0.00 | 53 | 1018.6 |
| 20260506171613 | 16 | 99 | 3.2 | 11.3 | 0.00 | 0.00 | 0.00 | 53 | 1018.5 |
| 20260506171110 | 15 | 83 | 4.8 | 9.7 | 0.00 | 0.00 | 0.00 | 55 | 1018.8 |
| 20260506170607 | 15 | 4 | 4.8 | 16.1 | 0.00 | 0.00 | 0.00 | 53 | 1018.5 |
| 20260506170059 | 15 | 69 | 6.4 | 16.1 | 0.00 | 0.00 | 0.00 | 55 | 1018.7 |
| 20260506165558 | 15 | 67 | 3.2 | 14.5 | 0.00 | 0.00 | 0.00 | 55 | 1018.7 |
| 20260506165053 | 15 | 70 | 4.8 | 16.1 | 0.00 | 0.00 | 0.00 | 55 | 1018.8 |
| 20260506164551 | 15 | 47 | 11.3 | 14.5 | 0.00 | 0.00 | 0.00 | 54 | 1019.0 |
| 20260506164048 | 14 | 58 | 3.2 | 14.5 | 0.00 | 0.00 | 0.00 | 56 | 1018.9 |
| 20260506163543 | 14 | 70 | 3.2 | 14.5 | 0.00 | 0.00 | 0.00 | 56 | 1018.9 |
| 20260506163039 | 14 | 80 | 9.7 | 12.9 | 0.00 | 0.00 | 0.00 | 55 | 1019.0 |
| 20260506162535 | 14 | 124 | 4.8 | 14.5 | 0.00 | 0.00 | 0.00 | 55 | 1019.1 |
| 20260506162027 | 14 | 62 | 11.3 | 25.7 | 0.00 | 0.00 | 0.00 | 56 | 1018.8 |
| 20260506161525 | 13 | 77 | 14.5 | 20.9 | 0.00 | 0.00 | 0.00 | 56 | 1019.2 |
| 20260506161022 | 13 | 97 | 8.0 | 12.9 | 0.00 | 0.00 | 0.00 | 57 | 1019.0 |
| 20260506160520 | 13 | 48 | 4.8 | 22.5 | 0.00 | 0.00 | 0.00 | 56 | 1018.6 |
| 20260506160016 | 13 | 38 | 6.4 | 11.3 | 0.00 | 0.00 | 0.00 | 57 | 1018.6 |
| 20260506155514 | 13 | 66 | 9.7 | 20.9 | 0.00 | 0.00 | 0.00 | 58 | 1018.9 |
| 20260506153646 | 12 | 90 | 4.8 | 16.1 | 0.00 | 0.00 | 0.00 | 60 | 1018.5 |
| 20260506153143 | 12 | 81 | 11.3 | 20.9 | 0.00 | 0.00 | 0.00 | 60 | 1018.7 |
| 20260506152640 | 12 | 64 | 9.7 | 14.5 | 0.00 | 0.00 | 0.00 | 61 | 1018.9 |
| 20260506152138 | 12 | 26 | 12.9 | 16.1 | 0.00 | 0.00 | 0.00 | 63 | 1018.6 |
| 20260506151636 | 12 | 72 | 8.0 | 12.9 | 0.00 | 0.00 | 0.00 | 63 | 1018.6 |
| 20260506151132 | 12 | 102 | 6.4 | 14.5 | 0.00 | 0.00 | 0.00 | 63 | 1018.8 |
| 20260506150630 | 11 | 75 | 11.3 | 25.7 | 0.00 | 0.00 | 0.00 | 65 | 1018.7 |
| 20260506150126 | 11 | 56 | 4.8 | 16.1 | 0.00 | 0.00 | 0.00 | 67 | 1018.6 |
| 20260506145623 | 11 | 53 | 6.4 | 14.5 | 0.00 | 0.00 | 0.00 | 69 | 1018.6 |
| 20260506145120 | 11 | 80 | 9.7 | 16.1 | 0.00 | 0.00 | 0.00 | 70 | 1018.4 |
| 20260506144618 | 11 | 43 | 6.4 | 11.3 | 0.00 | 0.00 | 0.00 | 72 | 1018.4 |
| 20260506144114 | 10 | 63 | 11.3 | 17.7 | 0.00 | 0.00 | 0.00 | 73 | 1018.1 |
| 20260506143612 | 10 | 51 | 9.7 | 12.9 | 0.00 | 0.00 | 0.00 | 74 | 1018.1 |
| 20260506143110 | 10 | 96 | 4.8 | 9.7 | 0.00 | 0.00 | 0.00 | 74 | 1018.2 |
| 20260506142608 | 10 | 75 | 8.0 | 12.9 | 0.00 | 0.00 | 0.00 | 74 | 1018.3 |
| 20260506142106 | 10 | 51 | 6.4 | 17.7 | 0.00 | 0.00 | 0.00 | 75 | 1018.1 |
| 20260506141603 | 10 | 103 | 4.8 | 16.1 | 0.00 | 0.00 | 0.00 | 75 | 1018.1 |
| 20260506141101 | 10 | 76 | 8.0 | 14.5 | 0.00 | 0.00 | 0.00 | 75 | 1018.2 |
| 20260506140558 | 10 | 287 | 4.8 | 9.7 | 0.00 | 0.00 | 0.00 | 75 | 1018.1 |
| 20260506140055 | 10 | 85 | 6.4 | 9.7 | 0.00 | 0.00 | 0.00 | 75 | 1018.1 |
| 20260506135552 | 10 | 91 | 3.2 | 16.1 | 0.00 | 0.00 | 0.00 | 76 | 1018.1 |
| 20260506135048 | 10 | 77 | 4.8 | 9.7 | 0.00 | 0.00 | 0.00 | 76 | 1018.3 |
| 20260506134545 | 10 | 68 | 4.8 | 9.7 | 0.00 | 0.00 | 0.00 | 77 | 1018.2 |
| 20260506134041 | 10 | 82 | 8.0 | 17.7 | 0.00 | 0.00 | 0.00 | 77 | 1018.5 |
| 20260506133538 | 10 | 112 | 8.0 | 17.7 | 0.00 | 0.00 | 0.00 | 78 | 1018.4 |
| 20260506133035 | 10 | 51 | 6.4 | 11.3 | 0.00 | 0.00 | 0.00 | 79 | 1018.5 |
| 20260506132532 | 9 | 34 | 6.4 | 11.3 | 0.00 | 0.00 | 0.00 | 79 | 1018.6 |
| 20260506132030 | 9 | 41 | 6.4 | 24.1 | 0.00 | 0.00 | 0.00 | 79 | 1018.5 |
| 20260506131527 | 9 | 40 | 3.2 | 14.5 | 0.00 | 0.00 | 0.00 | 80 | 1018.2 |
| 20260506131023 | 9 | 341 | 4.8 | 16.1 | 0.00 | 0.00 | 0.00 | 80 | 1018.2 |
| 20260506130520 | 9 | 69 | 1.6 | 4.8 | 0.00 | 0.00 | 0.00 | 80 | 1018.2 |
| 20260506130018 | 9 | 22 | 6.4 | 9.7 | 0.00 | 0.00 | 0.00 | 80 | 1018.2 |
| 20260506125516 | 9 | 330 | 6.4 | 11.3 | 0.00 | 0.00 | 0.00 | 81 | 1018.2 |
| 20260506125013 | 9 | 33 | 3.2 | 6.4 | 0.00 | 0.00 | 0.00 | 81 | 1018.3 |
| 20260506124511 | 9 | 69 | 4.8 | 9.7 | 0.00 | 0.00 | 0.00 | 81 | 1018.2 |
| 20260506124009 | 9 | 36 | 3.2 | 11.3 | 0.00 | 0.00 | 0.00 | 81 | 1018.0 |
| 20260506123506 | 9 | 50 | 6.4 | 11.3 | 0.00 | 0.00 | 0.00 | 82 | 1017.9 |
| 20260506123004 | 8 | 34 | 6.4 | 11.3 | 0.00 | 0.00 | 0.00 | 82 | 1017.4 |
| 20260506122500 | 9 | 104 | 8.0 | 12.9 | 0.00 | 0.00 | 0.00 | 82 | 1017.7 |
| 20260506121959 | 8 | 53 | 1.6 | 9.7 | 0.00 | 0.00 | 0.00 | 82 | 1017.4 |
| 20260506121455 | 8 | 62 | 3.2 | 11.3 | 0.00 | 0.00 | 0.00 | 82 | 1017.4 |
| 20260506120952 | 8 | 68 | 3.2 | 9.7 | 0.00 | 0.00 | 0.00 | 82 | 1017.0 |
| 20260506120450 | 8 | 51 | 4.8 | 6.4 | 0.00 | 0.00 | 0.00 | 82 | 1017.0 |
| 20260506115947 | 8 | 26 | 6.4 | 12.9 | 0.00 | 0.00 | 0.00 | 82 | 1017.1 |
| 20260506115445 | 8 | 18 | 4.8 | 14.5 | 0.00 | 0.00 | 0.00 | 82 | 1017.2 |
| 20260506114943 | 8 | 60 | 4.8 | 11.3 | 0.00 | 0.00 | 0.00 | 82 | 1016.8 |
| 20260506114440 | 8 | 4 | 1.6 | 6.4 | 0.00 | 0.00 | 0.00 | 82 | 1017.1 |
| 20260506113939 | 8 | 86 | 3.2 | 4.8 | 0.00 | 0.00 | 0.00 | 82 | 1017.0 |
| 20260506113436 | 8 | 351 | 1.6 | 4.8 | 0.00 | 0.00 | 0.00 | 82 | 1016.9 |
| 20260506112932 | 8 | 58 | 1.6 | 9.7 | 0.00 | 0.00 | 0.00 | 82 | 1016.8 |
| 20260506112430 | 8 | 61 | 1.6 | 9.7 | 0.00 | 0.00 | 0.00 | 82 | 1016.8 |
| 20260506111927 | 8 | 71 | 1.6 | 9.7 | 0.00 | 0.00 | 0.00 | 82 | 1016.6 |
| 20260506111425 | 8 | 74 | 1.6 | 6.4 | 0.00 | 0.00 | 0.00 | 82 | 1016.9 |
| 20260506110922 | 8 | 25 | 0.0 | 3.2 | 0.00 | 0.00 | 0.00 | 81 | 1016.6 |
| 20260506110420 | 8 | 59 | 4.8 | 6.4 | 0.00 | 0.00 | 0.00 | 81 | 1016.6 |
| 20260506105916 | 8 | 63 | 0.0 | 9.7 | 0.00 | 0.00 | 0.00 | 81 | 1016.3 |
| 20260506105412 | 8 | 76 | 1.6 | 9.7 | 0.00 | 0.00 | 0.00 | 80 | 1016.6 |
| 20260506104910 | 9 | 16 | 4.8 | 6.4 | 0.00 | 0.00 | 0.00 | 80 | 1016.9 |
| 20260506104408 | 9 | 14 | 1.6 | 3.2 | 0.00 | 0.00 | 0.00 | 79 | 1017.2 |
| 20260506103906 | 9 | 114 | 1.6 | 3.2 | 0.00 | 0.00 | 0.00 | 79 | 1017.3 |
| 20260506103403 | 9 | 341 | 1.6 | 3.2 | 0.00 | 0.00 | 0.00 | 79 | 1017.5 |
| 20260506102859 | 9 | 93 | 0.0 | 6.4 | 0.00 | 0.00 | 0.00 | 79 | 1017.4 |
| 20260506102358 | 9 | 27 | 3.2 | 9.7 | 0.00 | 0.00 | 0.00 | 79 | 1016.8 |
| 20260506101854 | 9 | 97 | 1.6 | 9.7 | 0.00 | 0.00 | 0.00 | 78 | 1016.9 |
| 20260506101350 | 9 | 328 | 4.8 | 11.3 | 0.00 | 0.00 | 0.00 | 78 | 1017.1 |
| 20260506100848 | 9 | 72 | 3.2 | 4.8 | 0.00 | 0.00 | 0.00 | 79 | 1016.8 |
| 20260506100347 | 9 | 72 | 1.6 | 3.2 | 0.00 | 0.00 | 0.00 | 79 | 1017.0 |
| 20260506095844 | 9 | 80 | 0.0 | 9.7 | 0.00 | 0.00 | 0.00 | 79 | 1017.0 |
| 20260506095342 | 9 | 52 | 0.0 | 3.2 | 0.00 | 0.00 | 0.00 | 79 | 1016.8 |
| 20260506094838 | 9 | 22 | 3.2 | 4.8 | 0.00 | 0.00 | 0.00 | 78 | 1016.7 |
| 20260506094337 | 9 | 356 | 1.6 | 9.7 | 0.00 | 0.00 | 0.00 | 78 | 1016.5 |
| 20260506093835 | 9 | 47 | 0.0 | 3.2 | 0.00 | 0.00 | 0.00 | 78 | 1016.3 |
| 20260506093332 | 9 | 45 | 6.4 | 11.3 | 0.00 | 0.00 | 0.00 | 78 | 1016.0 |
| 20260506092830 | 9 | 35 | 1.6 | 4.8 | 0.00 | 0.00 | 0.00 | 78 | 1016.1 |
| 20260506092327 | 9 | 122 | 1.6 | 14.5 | 0.00 | 0.00 | 0.00 | 77 | 1016.0 |
| 20260506091824 | 9 | 29 | 1.6 | 9.7 | 0.00 | 0.00 | 0.00 | 77 | 1015.9 |
| 20260506091322 | 9 | 42 | 3.2 | 4.8 | 0.00 | 0.00 | 0.00 | 77 | 1015.8 |
| 20260506090819 | 9 | 47 | 3.2 | 6.4 | 0.00 | 0.00 | 0.00 | 76 | 1015.9 |
| 20260506090316 | 9 | 1 | 1.6 | 3.2 | 0.00 | 0.00 | 0.00 | 76 | 1015.7 |
| 20260506085813 | 9 | 97 | 1.6 | 3.2 | 0.00 | 0.00 | 0.00 | 76 | 1015.8 |
| 20260506085309 | 9 | 31 | 3.2 | 3.2 | 0.00 | 0.00 | 0.00 | 76 | 1015.8 |
| 20260506084806 | 9 | 24 | 1.6 | 4.8 | 0.00 | 0.00 | 0.00 | 75 | 1015.8 |
| 20260506084302 | 9 | 99 | 3.2 | 4.8 | 0.00 | 0.00 | 0.00 | 75 | 1015.8 |
| 20260506083759 | 9 | 18 | 1.6 | 4.8 | 0.00 | 0.00 | 0.00 | 75 | 1015.8 |
| 20260506083257 | 9 | 66 | 1.6 | 9.7 | 0.00 | 0.00 | 0.00 | 75 | 1015.7 |
| 20260506082754 | 9 | 125 | 0.0 | 4.8 | 0.00 | 0.00 | 0.00 | 75 | 1015.3 |
| 20260506082249 | 9 | 341 | 8.0 | 11.3 | 0.00 | 0.00 | 0.00 | 75 | 1015.0 |
| 20260506081747 | 9 | 100 | 0.0 | 9.7 | 0.00 | 0.00 | 0.00 | 75 | 1014.9 |
| 20260506081245 | 9 | 111 | 1.6 | 4.8 | 0.00 | 0.00 | 0.00 | 74 | 1015.1 |
| 20260506080743 | 9 | 44 | 1.6 | 3.2 | 0.00 | 0.00 | 0.00 | 74 | 1015.1 |
| 20260506080239 | 9 | 1 | 4.8 | 16.1 | 0.00 | 0.00 | 0.00 | 74 | 1015.0 |
| 20260506073223 | 9 | 69 | 3.2 | 4.8 | 0.00 | 0.00 | 0.00 | 73 | 1014.6 |
| 20260506072719 | 9 | 290 | 6.4 | 11.3 | 0.00 | 0.00 | 0.00 | 73 | 1014.3 |
| 20260506072217 | 9 | 98 | 3.2 | 6.4 | 0.00 | 0.00 | 0.00 | 73 | 1014.2 |
| 20260506071714 | 9 | 17 | 3.2 | 6.4 | 0.00 | 0.00 | 0.00 | 73 | 1014.1 |
| 20260506071212 | 9 | 28 | 3.2 | 9.7 | 0.00 | 0.00 | 0.00 | 73 | 1014.1 |
| 20260506070709 | 9 | 94 | 3.2 | 12.9 | 0.00 | 0.00 | 0.00 | 73 | 1014.0 |
| 20260506070206 | 9 | 104 | 3.2 | 3.2 | 0.00 | 0.00 | 0.00 | 73 | 1014.3 |
| 20260506062143 | 10 | 24 | 9.7 | 11.3 | 0.00 | 0.00 | 0.00 | 72 | 1014.7 |
| 20260506061639 | 10 | 352 | 1.6 | 6.4 | 0.00 | 0.00 | 0.00 | 72 | 1014.3 |
| 20260506061137 | 10 | 76 | 1.6 | 9.7 | 0.00 | 0.00 | 0.00 | 72 | 1014.6 |